Data No, UTC Date,UTC Time,Latitude,Longitude,Course(deg),Temp(degC),Sal(psu)
514,2021/3/6,8:33,42-36.85N,141-37.05E,208,2.715,32.4214
515,2021/3/6,8:34,42-36.61N,141-36.89E,203,2.183,32.4236
516,2021/3/6,8:35,42-36.35N,141-36.86E,178,1.922,32.4417
517,2021/3/6,8:36,42-36.08N,141-36.89E,174,1.799,32.4194
518,2021/3/6,8:37,42-35.80N,141-36.93E,173,1.369,32.3826
519,2021/3/6,8:38,42-35.52N,141-36.97E,174,1.101,32.4063
520,2021/3/6,8:39,42-35.24N,141-37.00E,176,1.001,32.3939
521,2021/3/6,8:40,42-34.97N,141-37.02E,176,0.977,32.3987
522,2021/3/6,8:41,42-34.69N,141-37.04E,176,0.981,32.3774
523,2021/3/6,8:42,42-34.41N,141-37.07E,176,0.997,32.3919
524,2021/3/6,8:43,42-34.13N,141-37.09E,176,1.01,32.3868
525,2021/3/6,8:44,42-33.86N,141-37.11E,177,1.029,32.3819
526,2021/3/6,8:45,42-33.57N,141-37.12E,179,1.035,32.3759
527,2021/3/6,8:46,42-33.30N,141-37.12E,180,1.047,32.3826
528,2021/3/6,8:47,42-33.02N,141-37.11E,181,1.052,32.3765
529,2021/3/6,8:48,42-32.74N,141-37.11E,180,1.04,32.3828
530,2021/3/6,8:49,42-32.48N,141-37.09E,181,1.021,32.3798
531,2021/3/6,8:50,42-32.19N,141-37.08E,181,1.023,32.3758
532,2021/3/6,8:51,42-31.91N,141-37.08E,180,1.023,32.3793
533,2021/3/6,8:52,42-31.62N,141-37.07E,181,1.017,32.3731
534,2021/3/6,8:53,42-31.34N,141-37.07E,180,1.028,32.3818
535,2021/3/6,8:54,42-31.07N,141-37.06E,180,1.02,32.3705
536,2021/3/6,8:55,42-30.78N,141-37.06E,181,1.022,32.3767
537,2021/3/6,8:56,42-30.50N,141-37.05E,181,1.009,32.3763
538,2021/3/6,8:57,42-30.22N,141-37.04E,181,1.011,32.3645
539,2021/3/6,8:58,42-29.94N,141-37.03E,181,1.026,32.3725
540,2021/3/6,8:59,42-29.66N,141-37.02E,181,0.978,32.3822
541,2021/3/6,9:00,42-29.37N,141-37.02E,181,0.823,32.3704
542,2021/3/6,9:01,42-29.10N,141-37.01E,182,0.808,32.3623
543,2021/3/6,9:02,42-28.81N,141-37.00E,181,0.759,32.3421
544,2021/3/6,9:03,42-28.53N,141-36.99E,181,0.719,32.3391
545,2021/3/6,9:04,42-28.25N,141-36.98E,181,0.657,32.3291
546,2021/3/6,9:05,42-27.97N,141-36.97E,181,0.594,32.33
547,2021/3/6,9:06,42-27.69N,141-36.96E,181,0.546,32.3414
548,2021/3/6,9:07,42-27.41N,141-36.96E,181,0.526,32.3194
549,2021/3/6,9:08,42-27.13N,141-36.95E,181,0.53,32.329
550,2021/3/6,9:09,42-26.85N,141-36.93E,182,0.533,32.31
551,2021/3/6,9:10,42-26.56N,141-36.92E,181,0.507,32.3079
552,2021/3/6,9:11,42-26.29N,141-36.91E,182,0.489,32.3053
553,2021/3/6,9:12,42-26.01N,141-36.89E,182,0.492,32.2873
554,2021/3/6,9:13,42-25.73N,141-36.87E,182,0.498,32.2818
555,2021/3/6,9:14,42-25.45N,141-36.86E,183,0.487,32.2665
556,2021/3/6,9:15,42-25.17N,141-36.84E,183,0.49,32.2563
557,2021/3/6,9:16,42-24.90N,141-36.81E,183,0.498,32.2563
558,2021/3/6,9:17,42-24.61N,141-36.79E,183,0.524,32.2486
559,2021/3/6,9:18,42-24.34N,141-36.77E,182,0.566,32.2595
560,2021/3/6,9:19,42-24.06N,141-36.75E,183,0.597,32.2616
561,2021/3/6,9:20,42-23.78N,141-36.73E,183,0.611,32.2667
562,2021/3/6,9:21,42-23.51N,141-36.71E,183,0.633,32.2775
563,2021/3/6,9:22,42-23.22N,141-36.68E,183,0.638,32.2733
564,2021/3/6,9:23,42-22.95N,141-36.66E,184,0.639,32.293
565,2021/3/6,9:24,42-22.67N,141-36.63E,184,0.641,32.2883
566,2021/3/6,9:25,42-22.39N,141-36.60E,185,0.632,32.3051
567,2021/3/6,9:26,42-22.12N,141-36.56E,185,0.636,32.3004
568,2021/3/6,9:27,42-21.83N,141-36.53E,184,0.639,32.3052
569,2021/3/6,9:28,42-21.56N,141-36.50E,185,0.639,32.3167
570,2021/3/6,9:29,42-21.28N,141-36.46E,185,0.649,32.3193
571,2021/3/6,9:30,42-21.00N,141-36.43E,184,0.667,32.3296
572,2021/3/6,9:31,42-20.73N,141-36.41E,184,0.663,32.3464
573,2021/3/6,9:32,42-20.44N,141-36.37E,184,0.646,32.3489
574,2021/3/6,9:33,42-20.17N,141-36.34E,185,0.622,32.3673
575,2021/3/6,9:34,42-19.89N,141-36.31E,184,0.604,32.3685
576,2021/3/6,9:35,42-19.61N,141-36.29E,182,0.602,32.366
577,2021/3/6,9:36,42-19.34N,141-36.28E,181,0.629,32.3728
578,2021/3/6,9:37,42-19.05N,141-36.27E,181,0.663,32.3809
579,2021/3/6,9:38,42-18.77N,141-36.27E,179,0.689,32.4015
580,2021/3/6,9:39,42-18.50N,141-36.27E,179,0.668,32.4047
581,2021/3/6,9:40,42-18.21N,141-36.27E,179,0.525,32.4248
582,2021/3/6,9:41,42-17.93N,141-36.27E,180,0.48,32.401
583,2021/3/6,9:42,42-17.64N,141-36.27E,180,0.475,32.3647
584,2021/3/6,9:43,42-17.37N,141-36.27E,180,0.476,32.3399
585,2021/3/6,9:44,42-17.08N,141-36.26E,180,0.478,32.3185
586,2021/3/6,9:45,42-16.80N,141-36.26E,179,0.48,32.3086
587,2021/3/6,9:46,42-16.53N,141-36.26E,180,0.495,32.3099
588,2021/3/6,9:47,42-16.24N,141-36.26E,179,0.503,32.3034
589,2021/3/6,9:48,42-15.96N,141-36.26E,180,0.528,32.3142
590,2021/3/6,9:49,42-15.68N,141-36.26E,180,0.558,32.312
591,2021/3/6,9:50,42-15.39N,141-36.26E,178,0.606,32.3225
592,2021/3/6,9:51,42-15.12N,141-36.27E,179,0.705,32.3305
593,2021/3/6,9:52,42-14.84N,141-36.27E,179,0.721,32.3417
594,2021/3/6,9:53,42-14.56N,141-36.28E,179,0.754,32.3477
595,2021/3/6,9:54,42-14.28N,141-36.28E,180,0.803,32.3387
596,2021/3/6,9:55,42-13.99N,141-36.28E,179,0.875,32.3566
597,2021/3/6,9:56,42-13.71N,141-36.28E,180,0.947,32.3579
598,2021/3/6,9:57,42-13.43N,141-36.28E,179,0.996,32.3741
599,2021/3/6,9:58,42-13.15N,141-36.28E,180,1.047,32.3919
600,2021/3/6,9:59,42-12.87N,141-36.27E,180,1.062,32.4022
601,2021/3/6,10:00,42-12.58N,141-36.27E,180,1.071,32.4194
602,2021/3/6,10:01,42-12.27N,141-36.27E,181,1.078,32.4209
603,2021/3/6,10:02,42-11.98N,141-36.27E,180,1.086,32.4162
604,2021/3/6,10:03,42-11.70N,141-36.27E,180,1.093,32.4242
605,2021/3/6,10:04,42-11.42N,141-36.26E,181,1.103,32.4259
606,2021/3/6,10:05,42-11.17N,141-36.26E,180,1.118,32.4337
607,2021/3/6,10:06,42-10.89N,141-36.26E,179,1.127,32.4288
608,2021/3/6,10:07,42-10.61N,141-36.26E,180,1.132,32.4468
609,2021/3/6,10:08,42-10.30N,141-36.26E,179,1.195,32.4404
610,2021/3/6,10:09,42-10.00N,141-36.27E,179,1.243,32.4454
611,2021/3/6,10:10,42-09.71N,141-36.28E,179,1.286,32.4545
612,2021/3/6,10:11,42-09.43N,141-36.28E,179,1.332,32.4546
613,2021/3/6,10:12,42-09.17N,141-36.28E,179,1.265,32.4688
614,2021/3/6,10:13,42-08.90N,141-36.29E,180,1.205,32.4489
615,2021/3/6,10:14,42-08.61N,141-36.29E,179,1.174,32.4371
616,2021/3/6,10:15,42-08.30N,141-36.29E,180,1.17,32.428
617,2021/3/6,10:16,42-08.00N,141-36.29E,180,1.175,32.42
618,2021/3/6,10:17,42-07.71N,141-36.30E,179,1.214,32.4174
619,2021/3/6,10:18,42-07.42N,141-36.30E,180,1.265,32.425
620,2021/3/6,10:19,42-07.16N,141-36.30E,180,1.315,32.4306
621,2021/3/6,10:20,42-06.88N,141-36.30E,180,1.365,32.4455
622,2021/3/6,10:21,42-06.58N,141-36.29E,180,1.412,32.4502
623,2021/3/6,10:22,42-06.28N,141-36.29E,180,1.505,32.467
624,2021/3/6,10:23,42-05.98N,141-36.29E,181,1.588,32.4874
625,2021/3/6,10:24,42-05.69N,141-36.29E,181,1.726,32.4949
626,2021/3/6,10:25,42-05.40N,141-36.28E,181,1.821,32.5207
627,2021/3/6,10:26,42-05.11N,141-36.28E,180,1.851,32.5348
628,2021/3/6,10:27,42-04.82N,141-36.28E,181,1.925,32.5589
629,2021/3/6,10:28,42-04.52N,141-36.28E,181,1.992,32.564
630,2021/3/6,10:29,42-04.24N,141-36.28E,181,2.037,32.5825
631,2021/3/6,10:30,42-03.94N,141-36.27E,181,2.074,32.5867
632,2021/3/6,10:31,42-03.66N,141-36.27E,181,2.106,32.6015
633,2021/3/6,10:32,42-03.37N,141-36.26E,181,2.152,32.6125
634,2021/3/6,10:33,42-03.07N,141-36.26E,181,2.215,32.6224
635,2021/3/6,10:34,42-02.78N,141-36.25E,182,2.292,32.6292
636,2021/3/6,10:35,42-02.49N,141-36.25E,181,2.203,32.6502
637,2021/3/6,10:36,42-02.21N,141-36.25E,180,2.065,32.6625
638,2021/3/6,10:37,42-01.92N,141-36.25E,180,2.013,32.662
639,2021/3/6,10:38,42-01.63N,141-36.25E,180,1.994,32.6455
640,2021/3/6,10:39,42-01.34N,141-36.24E,183,1.994,32.6554
641,2021/3/6,10:40,42-01.05N,141-36.24E,183,2.03,32.6382
642,2021/3/6,10:41,42-00.77N,141-36.23E,182,2.065,32.6487
643,2021/3/6,10:42,42-00.49N,141-36.23E,181,2.102,32.6575
644,2021/3/6,10:43,42-00.20N,141-36.24E,182,2.143,32.6492
645,2021/3/6,10:44,41-59.92N,141-36.21E,183,2.205,32.6681
646,2021/3/6,10:45,41-59.62N,141-36.19E,184,2.302,32.6589
647,2021/3/6,10:46,41-59.39N,141-36.18E,182,2.365,32.6826
648,2021/3/6,10:47,41-59.10N,141-36.16E,182,2.387,32.7055
649,2021/3/6,10:48,41-58.81N,141-36.15E,183,2.485,32.7096
650,2021/3/6,10:49,41-58.54N,141-36.13E,182,2.568,32.7285
651,2021/3/6,10:50,41-58.25N,141-36.11E,182,2.626,32.7312
652,2021/3/6,10:51,41-57.97N,141-36.09E,182,2.652,32.7471
653,2021/3/6,10:52,41-57.69N,141-36.07E,183,2.67,32.753
654,2021/3/6,10:53,41-57.40N,141-36.06E,182,2.699,32.7638
655,2021/3/6,10:54,41-57.12N,141-36.04E,182,2.711,32.7692
656,2021/3/6,10:55,41-56.83N,141-36.03E,182,2.734,32.7699
657,2021/3/6,10:56,41-56.55N,141-36.01E,183,2.775,32.776
658,2021/3/6,10:57,41-56.26N,141-35.99E,183,2.782,32.7808
659,2021/3/6,10:58,41-55.98N,141-35.97E,183,2.759,32.7726
660,2021/3/6,10:59,41-55.70N,141-35.95E,182,2.753,32.7692
661,2021/3/6,11:00,41-55.41N,141-35.93E,182,2.774,32.7702
662,2021/3/6,11:01,41-55.13N,141-35.92E,181,2.839,32.7626
663,2021/3/6,11:02,41-54.84N,141-35.90E,182,2.898,32.7593
664,2021/3/6,11:03,41-54.54N,141-35.88E,182,2.946,32.7652
665,2021/3/6,11:04,41-54.24N,141-35.87E,182,3.012,32.7686
666,2021/3/6,11:05,41-53.95N,141-35.85E,183,3.176,32.8008
667,2021/3/6,11:06,41-53.67N,141-35.83E,183,3.244,32.8143
668,2021/3/6,11:07,41-53.40N,141-35.81E,183,3.277,32.828
669,2021/3/6,11:08,41-53.15N,141-35.81E,182,3.302,32.8397
670,2021/3/6,11:09,41-52.87N,141-35.80E,180,3.34,32.8455
671,2021/3/6,11:10,41-52.59N,141-35.79E,181,3.356,32.8548
672,2021/3/6,11:11,41-52.32N,141-35.77E,183,3.371,32.8588
673,2021/3/6,11:12,41-52.04N,141-35.75E,182,3.373,32.8599
674,2021/3/6,11:13,41-51.76N,141-35.73E,182,3.366,32.8712
675,2021/3/6,11:14,41-51.48N,141-35.72E,180,3.364,32.8659
676,2021/3/6,11:15,41-51.20N,141-35.70E,182,3.367,32.86
677,2021/3/6,11:16,41-50.94N,141-35.69E,181,3.376,32.8645
678,2021/3/6,11:17,41-50.66N,141-35.68E,181,3.405,32.8605
679,2021/3/6,11:18,41-50.39N,141-35.67E,182,3.436,32.8717
680,2021/3/6,11:19,41-50.12N,141-35.65E,182,3.482,32.8701
681,2021/3/6,11:20,41-49.84N,141-35.64E,182,3.599,32.8777
682,2021/3/6,11:21,41-49.58N,141-35.63E,182,3.612,32.9039
683,2021/3/6,11:22,41-49.31N,141-35.62E,181,3.596,32.9156
684,2021/3/6,11:23,41-49.03N,141-35.60E,182,3.589,32.9021
685,2021/3/6,11:24,41-48.77N,141-35.60E,181,3.579,32.9093
686,2021/3/6,11:25,41-48.49N,141-35.59E,180,3.587,32.9084
687,2021/3/6,11:26,41-48.22N,141-35.59E,180,3.615,32.9205
688,2021/3/6,11:27,41-47.95N,141-35.58E,180,3.699,32.9273
689,2021/3/6,11:28,41-47.67N,141-35.58E,179,3.751,32.9245
690,2021/3/6,11:29,41-47.39N,141-35.59E,180,3.759,32.9395
691,2021/3/6,11:30,41-47.12N,141-35.59E,180,3.797,32.9458
692,2021/3/6,11:31,41-46.84N,141-35.59E,180,3.809,32.9505
693,2021/3/6,11:32,41-46.57N,141-35.58E,180,3.848,32.9527
694,2021/3/6,11:33,41-46.29N,141-35.58E,179,3.883,32.952
695,2021/3/6,11:34,41-46.03N,141-35.58E,180,3.865,32.9584
696,2021/3/6,11:35,41-45.75N,141-35.58E,179,3.792,32.9663
697,2021/3/6,11:36,41-45.44N,141-35.59E,178,3.698,32.97
698,2021/3/6,11:37,41-45.17N,141-35.60E,178,3.576,32.9631
699,2021/3/6,11:38,41-44.89N,141-35.61E,177,3.494,32.9525
700,2021/3/6,11:39,41-44.63N,141-35.62E,178,3.419,32.9371
701,2021/3/6,11:40,41-44.36N,141-35.63E,178,3.368,32.9123
702,2021/3/6,11:41,41-44.13N,141-35.63E,178,3.353,32.8954
703,2021/3/6,11:42,41-43.86N,141-35.65E,177,3.345,32.8875
704,2021/3/6,11:43,41-43.58N,141-35.67E,177,3.369,32.8744
705,2021/3/6,11:44,41-43.31N,141-35.70E,174,6.556,32.8811
706,2021/3/6,11:45,41-43.03N,141-35.73E,175,7.816,33.0273
707,2021/3/6,11:46,41-42.75N,141-35.76E,176,8.169,33.2075
708,2021/3/6,11:47,41-42.44N,141-35.78E,176,8.265,33.4008
709,2021/3/6,11:48,41-42.19N,141-35.82E,174,8.134,33.489
710,2021/3/6,11:49,41-41.91N,141-35.85E,175,8.383,33.5301
711,2021/3/6,11:50,41-41.63N,141-35.87E,176,8.432,33.5518
712,2021/3/6,11:51,41-41.35N,141-35.90E,176,8.46,33.5478
713,2021/3/6,11:52,41-41.07N,141-35.92E,175,8.465,33.5633
714,2021/3/6,11:53,41-40.78N,141-35.96E,173,8.446,33.5814
715,2021/3/6,11:54,41-40.50N,141-36.01E,172,8.629,33.5816
716,2021/3/6,11:55,41-40.21N,141-36.06E,172,8.782,33.59
717,2021/3/6,11:56,41-39.92N,141-36.11E,173,8.777,33.5925
718,2021/3/6,11:57,41-39.63N,141-36.15E,173,8.79,33.6078
719,2021/3/6,11:58,41-39.34N,141-36.20E,173,8.789,33.6065
720,2021/3/6,11:59,41-39.06N,141-36.24E,173,8.777,33.6141
721,2021/3/6,12:00,41-38.77N,141-36.28E,173,8.706,33.6173
722,2021/3/6,12:01,41-38.48N,141-36.33E,173,8.725,33.6164
723,2021/3/6,12:02,41-38.19N,141-36.37E,174,8.709,33.6253
724,2021/3/6,12:03,41-37.86N,141-36.41E,175,8.711,33.6067
725,2021/3/6,12:04,41-37.57N,141-36.44E,175,8.696,33.626
726,2021/3/6,12:05,41-37.28N,141-36.48E,175,8.663,33.6141
727,2021/3/6,12:06,41-37.01N,141-36.52E,174,8.628,33.6238
728,2021/3/6,12:07,41-36.73N,141-36.56E,174,8.627,33.6236
729,2021/3/6,12:08,41-36.43N,141-36.59E,174,8.65,33.6214
730,2021/3/6,12:09,41-36.14N,141-36.63E,175,8.654,33.6309
731,2021/3/6,12:10,41-35.85N,141-36.66E,175,8.649,33.6129
732,2021/3/6,12:11,41-35.56N,141-36.69E,176,8.652,33.6185
733,2021/3/6,12:12,41-35.27N,141-36.71E,176,8.65,33.6159
734,2021/3/6,12:13,41-34.97N,141-36.74E,176,8.666,33.6245
735,2021/3/6,12:14,41-34.68N,141-36.76E,176,8.676,33.6226
736,2021/3/6,12:15,41-34.39N,141-36.78E,176,8.675,33.6223
737,2021/3/6,12:16,41-34.09N,141-36.81E,176,8.689,33.623
738,2021/3/6,12:17,41-33.80N,141-36.83E,177,8.696,33.6119
739,2021/3/6,12:18,41-33.50N,141-36.84E,177,8.703,33.6186
740,2021/3/6,12:19,41-33.21N,141-36.86E,177,8.708,33.6171
741,2021/3/6,12:20,41-32.92N,141-36.88E,177,8.712,33.6136
742,2021/3/6,12:21,41-32.62N,141-36.89E,177,8.727,33.6226
743,2021/3/6,12:22,41-32.33N,141-36.91E,177,8.73,33.6219
744,2021/3/6,12:23,41-32.03N,141-36.93E,177,8.742,33.6268
745,2021/3/6,12:24,41-31.73N,141-36.94E,178,8.754,33.6096
746,2021/3/6,12:25,41-31.43N,141-36.95E,178,8.761,33.6191
747,2021/3/6,12:26,41-31.13N,141-36.96E,178,8.783,33.6154
748,2021/3/6,12:27,41-30.84N,141-36.97E,178,8.785,33.614
749,2021/3/6,12:28,41-30.54N,141-36.98E,178,8.785,33.6219
750,2021/3/6,12:29,41-30.24N,141-36.99E,178,8.777,33.6162
751,2021/3/6,12:30,41-29.94N,141-36.99E,179,8.735,33.6214
752,2021/3/6,12:31,41-29.64N,141-36.99E,179,8.729,33.6093
753,2021/3/6,12:32,41-29.35N,141-36.99E,179,8.718,33.6189
754,2021/3/6,12:33,41-29.05N,141-36.99E,179,8.713,33.6184
755,2021/3/6,12:34,41-28.76N,141-37.00E,179,8.731,33.6145
756,2021/3/6,12:35,41-28.43N,141-37.00E,180,8.73,33.6134
757,2021/3/6,12:36,41-28.16N,141-36.99E,181,8.733,33.6212
758,2021/3/6,12:37,41-27.83N,141-36.98E,180,8.734,33.6203
759,2021/3/6,12:38,41-27.53N,141-36.97E,180,8.733,33.6114
760,2021/3/6,12:39,41-27.23N,141-36.97E,179,8.734,33.6231
761,2021/3/6,12:40,41-26.98N,141-36.97E,180,8.726,33.6225
762,2021/3/6,12:41,41-26.63N,141-36.96E,181,8.735,33.6158
763,2021/3/6,12:42,41-26.34N,141-36.95E,181,8.737,33.6152
764,2021/3/6,12:43,41-26.04N,141-36.95E,179,8.737,33.6243
765,2021/3/6,12:44,41-25.78N,141-36.96E,177,8.742,33.6225
766,2021/3/6,12:45,41-25.46N,141-36.99E,176,8.769,33.6174
767,2021/3/6,12:46,41-25.18N,141-37.01E,176,8.781,33.62
768,2021/3/6,12:47,41-24.88N,141-37.03E,177,8.768,33.6197
769,2021/3/6,12:48,41-24.58N,141-37.05E,176,8.759,33.615
770,2021/3/6,12:49,41-24.28N,141-37.07E,176,8.757,33.6099
771,2021/3/6,12:50,41-23.97N,141-37.10E,176,8.753,33.6131
772,2021/3/6,12:51,41-23.66N,141-37.11E,177,8.747,33.617
773,2021/3/6,12:52,41-23.36N,141-37.12E,178,8.737,33.6154
774,2021/3/6,12:53,41-23.05N,141-37.13E,178,8.732,33.6219
775,2021/3/6,12:54,41-22.75N,141-37.15E,178,8.727,33.6176
776,2021/3/6,12:55,41-22.44N,141-37.15E,178,8.713,33.6143
777,2021/3/6,12:56,41-22.13N,141-37.16E,179,8.681,33.6113
778,2021/3/6,12:57,41-21.84N,141-37.18E,174,8.63,33.6122
779,2021/3/6,12:58,41-21.54N,141-37.25E,167,8.571,33.6144
780,2021/3/6,12:59,41-21.23N,141-37.36E,165,8.48,33.6121
781,2021/3/6,13:00,41-20.92N,141-37.46E,164,8.454,33.6103
782,2021/3/6,13:01,41-20.67N,141-37.56E,164,8.445,33.5982
783,2021/3/6,13:02,41-20.35N,141-37.67E,164,8.436,33.5933
784,2021/3/6,13:03,41-20.11N,141-37.79E,160,8.574,33.5958
785,2021/3/6,13:04,41-19.84N,141-37.91E,162,8.777,33.5894
786,2021/3/6,13:05,41-19.56N,141-38.02E,163,8.844,33.5969
787,2021/3/6,13:06,41-19.27N,141-38.12E,164,8.876,33.604
788,2021/3/6,13:07,41-19.00N,141-38.22E,164,8.894,33.6146
789,2021/3/6,13:08,41-18.73N,141-38.33E,162,8.889,33.6135
790,2021/3/6,13:09,41-18.45N,141-38.45E,161,8.879,33.6143
791,2021/3/6,13:10,41-18.18N,141-38.57E,162,8.879,33.6186
792,2021/3/6,13:11,41-17.89N,141-38.68E,162,8.884,33.6178
793,2021/3/6,13:12,41-17.62N,141-38.80E,162,8.894,33.618
794,2021/3/6,13:13,41-17.34N,141-38.91E,163,8.903,33.6124
795,2021/3/6,13:14,41-17.05N,141-39.02E,162,8.911,33.6134
796,2021/3/6,13:15,41-16.78N,141-39.14E,162,8.912,33.613
797,2021/3/6,13:16,41-16.49N,141-39.26E,161,8.896,33.6185
798,2021/3/6,13:17,41-16.22N,141-39.38E,162,8.874,33.6137
799,2021/3/6,13:18,41-15.94N,141-39.49E,163,8.859,33.6237
800,2021/3/6,13:19,41-15.65N,141-39.61E,162,8.851,33.6189
801,2021/3/6,13:20,41-15.38N,141-39.72E,162,8.847,33.6195
802,2021/3/6,13:21,41-15.09N,141-39.84E,162,8.845,33.613
803,2021/3/6,13:22,41-14.81N,141-39.95E,163,8.834,33.6182
804,2021/3/6,13:23,41-14.53N,141-40.06E,163,8.828,33.6165
805,2021/3/6,13:24,41-14.24N,141-40.18E,163,8.823,33.6156
806,2021/3/6,13:25,41-13.95N,141-40.29E,163,8.818,33.6066
807,2021/3/6,13:26,41-13.67N,141-40.40E,162,8.822,33.6154
808,2021/3/6,13:27,41-13.39N,141-40.52E,163,8.815,33.6097
809,2021/3/6,13:28,41-13.10N,141-40.63E,163,8.806,33.6095
810,2021/3/6,13:29,41-12.81N,141-40.74E,163,8.793,33.6186
811,2021/3/6,13:30,41-12.53N,141-40.85E,163,8.775,33.6163
812,2021/3/6,13:31,41-12.24N,141-40.96E,163,8.755,33.6155
813,2021/3/6,13:32,41-11.95N,141-41.06E,164,8.731,33.6098
814,2021/3/6,13:33,41-11.67N,141-41.17E,163,8.719,33.6132
815,2021/3/6,13:34,41-11.38N,141-41.28E,163,8.688,33.6046
816,2021/3/6,13:35,41-11.10N,141-41.39E,163,8.661,33.6045
817,2021/3/6,13:36,41-10.81N,141-41.50E,163,8.593,33.6047
818,2021/3/6,13:37,41-10.49N,141-41.62E,164,8.618,33.6082
819,2021/3/6,13:38,41-10.20N,141-41.72E,164,8.611,33.6074
820,2021/3/6,13:39,41-09.96N,141-41.81E,164,8.614,33.5984
821,2021/3/6,13:40,41-09.68N,141-41.92E,163,8.547,33.6046
822,2021/3/6,13:41,41-09.39N,141-42.03E,163,8.49,33.5953
823,2021/3/6,13:42,41-09.12N,141-42.14E,163,8.451,33.5938
824,2021/3/6,13:43,41-08.81N,141-42.27E,162,8.45,33.5927
825,2021/3/6,13:44,41-08.53N,141-42.39E,162,8.462,33.591
826,2021/3/6,13:45,41-08.26N,141-42.50E,162,8.469,33.5961
827,2021/3/6,13:46,41-07.98N,141-42.61E,163,8.494,33.5829
828,2021/3/6,13:47,41-07.71N,141-42.71E,163,8.538,33.5919
829,2021/3/6,13:48,41-07.44N,141-42.83E,161,8.523,33.6007
830,2021/3/6,13:49,41-07.16N,141-42.95E,160,8.464,33.593
831,2021/3/6,13:50,41-06.89N,141-43.07E,160,8.466,33.5896
832,2021/3/6,13:51,41-06.61N,141-43.20E,161,8.459,33.5953
833,2021/3/6,13:52,41-06.34N,141-43.31E,162,8.46,33.5978
834,2021/3/6,13:53,41-06.07N,141-43.43E,161,8.462,33.5939
835,2021/3/6,13:54,41-05.79N,141-43.54E,162,8.464,33.5916
836,2021/3/6,13:55,41-05.52N,141-43.66E,161,8.468,33.5912
837,2021/3/6,13:56,41-05.24N,141-43.78E,162,8.473,33.5891
838,2021/3/6,13:57,41-04.97N,141-43.90E,161,8.472,33.599
839,2021/3/6,13:58,41-04.70N,141-44.02E,161,8.475,33.59
840,2021/3/6,13:59,41-04.42N,141-44.14E,161,8.481,33.5974
841,2021/3/6,14:00,41-04.15N,141-44.25E,162,8.503,33.5958
842,2021/3/6,14:01,41-03.91N,141-44.35E,161,8.526,33.5933
843,2021/3/6,14:02,41-03.64N,141-44.47E,161,8.523,33.5935
844,2021/3/6,14:03,41-03.36N,141-44.58E,162,8.525,33.5889
845,2021/3/6,14:04,41-03.08N,141-44.69E,162,8.537,33.6033
846,2021/3/6,14:05,41-02.81N,141-44.81E,162,8.609,33.5929
847,2021/3/6,14:06,41-02.54N,141-44.92E,162,8.671,33.6048
848,2021/3/6,14:07,41-02.27N,141-45.03E,162,8.702,33.6072
849,2021/3/6,14:08,41-01.99N,141-45.14E,162,8.715,33.6126
850,2021/3/6,14:09,41-01.72N,141-45.26E,162,8.723,33.6136
851,2021/3/6,14:10,41-01.45N,141-45.37E,162,8.725,33.6081
852,2021/3/6,14:11,41-01.16N,141-45.48E,163,8.728,33.6086
853,2021/3/6,14:12,41-00.89N,141-45.58E,163,8.732,33.6111
854,2021/3/6,14:13,41-00.62N,141-45.69E,163,8.73,33.612
855,2021/3/6,14:14,41-00.34N,141-45.79E,163,8.734,33.6142
856,2021/3/6,14:15,41-00.07N,141-45.89E,163,8.742,33.6184
857,2021/3/6,14:16,40-59.79N,141-46.00E,162,8.741,33.613
858,2021/3/6,14:17,40-59.51N,141-46.11E,163,8.745,33.6075
859,2021/3/6,14:18,40-59.24N,141-46.22E,163,8.747,33.6127
860,2021/3/6,14:19,40-58.96N,141-46.32E,163,8.742,33.6095
861,2021/3/6,14:20,40-58.69N,141-46.43E,163,8.741,33.6074
862,2021/3/6,14:21,40-58.39N,141-46.54E,164,8.744,33.604
863,2021/3/6,14:22,40-58.10N,141-46.65E,164,8.738,33.6193
864,2021/3/6,14:23,40-57.82N,141-46.74E,164,8.734,33.6155
865,2021/3/6,14:24,40-57.57N,141-46.83E,165,8.736,33.6106
866,2021/3/6,14:25,40-57.29N,141-46.91E,167,8.741,33.6157
867,2021/3/6,14:26,40-57.01N,141-47.00E,166,8.748,33.6149
868,2021/3/6,14:27,40-56.73N,141-47.09E,166,8.747,33.6113
869,2021/3/6,14:28,40-56.41N,141-47.18E,167,8.757,33.611
870,2021/3/6,14:29,40-56.11N,141-47.27E,166,8.763,33.6203
871,2021/3/6,14:30,40-55.86N,141-47.35E,166,8.769,33.6199
872,2021/3/6,14:31,40-55.59N,141-47.43E,166,8.771,33.6165
873,2021/3/6,14:32,40-55.31N,141-47.52E,166,8.775,33.614
874,2021/3/6,14:33,40-55.03N,141-47.61E,166,8.791,33.6116
875,2021/3/6,14:34,40-54.74N,141-47.71E,166,8.793,33.6087
876,2021/3/6,14:35,40-54.46N,141-47.79E,166,8.782,33.6093
877,2021/3/6,14:36,40-54.18N,141-47.88E,166,8.772,33.6104
878,2021/3/6,14:37,40-53.90N,141-47.97E,165,8.765,33.6102
879,2021/3/6,14:38,40-53.61N,141-48.07E,166,8.759,33.6097
880,2021/3/6,14:39,40-53.32N,141-48.16E,166,8.759,33.6135
881,2021/3/6,14:40,40-53.04N,141-48.25E,166,8.763,33.6072
882,2021/3/6,14:41,40-52.76N,141-48.34E,166,8.757,33.6097
883,2021/3/6,14:42,40-52.47N,141-48.42E,167,8.752,33.5991
884,2021/3/6,14:43,40-52.18N,141-48.51E,166,8.745,33.6072
885,2021/3/6,14:44,40-51.89N,141-48.60E,167,8.741,33.6058
886,2021/3/6,14:45,40-51.57N,141-48.69E,166,8.737,33.6052
887,2021/3/6,14:46,40-51.28N,141-48.78E,166,8.728,33.6128
888,2021/3/6,14:47,40-51.02N,141-48.86E,166,8.725,33.6061
889,2021/3/6,14:48,40-50.74N,141-48.94E,167,8.716,33.6127
890,2021/3/6,14:49,40-50.45N,141-49.03E,167,8.71,33.5993
891,2021/3/6,14:50,40-50.17N,141-49.11E,167,8.71,33.6065
892,2021/3/6,14:51,40-49.88N,141-49.21E,165,8.708,33.6108
893,2021/3/6,14:52,40-49.60N,141-49.31E,163,8.711,33.6011
894,2021/3/6,14:53,40-49.32N,141-49.42E,164,8.715,33.6092
895,2021/3/6,14:54,40-49.02N,141-49.53E,163,8.719,33.6073
896,2021/3/6,14:55,40-48.72N,141-49.65E,164,8.725,33.6111
897,2021/3/6,14:56,40-48.45N,141-49.75E,162,8.741,33.6119
898,2021/3/6,14:57,40-48.17N,141-49.86E,162,8.771,33.6088
899,2021/3/6,14:58,40-47.89N,141-49.96E,163,8.792,33.6202
900,2021/3/6,14:59,40-47.61N,141-50.07E,164,8.801,33.6099
901,2021/3/6,15:00,40-47.34N,141-50.17E,163,8.807,33.6162
902,2021/3/6,15:01,40-47.06N,141-50.28E,162,8.803,33.6152
903,2021/3/6,15:02,40-46.79N,141-50.39E,163,8.804,33.6253
904,2021/3/6,15:03,40-46.52N,141-50.49E,164,8.809,33.623
905,2021/3/6,15:04,40-46.24N,141-50.60E,163,8.799,33.6227
906,2021/3/6,15:05,40-46.01N,141-50.69E,163,8.793,33.6219
907,2021/3/6,15:06,40-45.74N,141-50.79E,163,8.792,33.6183
908,2021/3/6,15:07,40-45.47N,141-50.90E,163,8.78,33.6137
909,2021/3/6,15:08,40-45.20N,141-51.00E,162,8.777,33.6162
910,2021/3/6,15:09,40-44.90N,141-51.13E,162,8.777,33.6157
911,2021/3/6,15:10,40-44.64N,141-51.23E,162,8.768,33.6145
912,2021/3/6,15:11,40-44.35N,141-51.35E,163,8.755,33.6227
913,2021/3/6,15:12,40-44.07N,141-51.46E,162,8.743,33.6186
914,2021/3/6,15:13,40-43.80N,141-51.56E,163,8.738,33.6226
915,2021/3/6,15:14,40-43.53N,141-51.66E,164,8.728,33.6108
916,2021/3/6,15:15,40-43.26N,141-51.76E,165,8.719,33.6161
917,2021/3/6,15:16,40-42.99N,141-51.85E,164,8.716,33.6236
918,2021/3/6,15:17,40-42.71N,141-51.95E,165,8.702,33.6116
919,2021/3/6,15:18,40-42.46N,141-52.04E,164,8.691,33.6089
920,2021/3/6,15:19,40-42.16N,141-52.14E,166,8.691,33.6217
921,2021/3/6,15:20,40-41.89N,141-52.21E,167,8.701,33.618